[Date Prev][Date Next][Thread Prev][Thread Next] - [Date Index][Thread Index][Author Index]
2 Line ISS Keps 6-14
- Subject: [sarex] 2 Line ISS Keps 6-14
- From: "Dave Larsen PhD" <doc@xxxxxxxxxxx>
- Date: Mon, 14 Jun 2004 03:05:55 -0700
ISS
1 25544U 98067A 04166.27006944 .00012621 00000-0 11197-3 0 9881
2 25544 51.6328 340.6132 0005373 232.5355 121.4533 15.68977417317857
----
Via the sarex mailing list at AMSAT.ORG courtesy of AMSAT-NA.
To unsubscribe, send "unsubscribe sarex" to Majordomo@amsat.org
AMSAT Home